+ View the NASA Portal
+ Center for Near-Earth Object Studies
IMPORTANT:
The SSD Announcement email list is now available. Major changes are coming in the near future, including possible hostname and/or URL changes. To be notified of such changes, subscribe to this email list.
Please visit
this page
for more details.
Don't show this message again
JPL Small-Body Database Browser
Search:
[
help
]
146221 (2000 VH58)
Classification:
Main-belt Asteroid
SPK-ID:
2146221
[
Ephemeris
|
Orbit Diagram
|
Orbital Elements
|
Mission Design
|
Physical Parameters
|
Discovery Circumstances
|
Close-Approach Data
]
[ show orbit diagram ]
Orbital Elements at Epoch 2458600.5 (2019-Apr-27.0) TDB
Reference:
JPL 8
(heliocentric ecliptic J2000)
Element
Value
Uncertainty (1-sigma)
Units
e
.2131835506480657
4.8263e-08
a
3.162148433881298
2.9734e-08
au
q
2.488030403070263
1.5584e-07
au
i
4.319606096851716
6.9908e-06
deg
node
304.4713197566833
9.3711e-05
deg
peri
119.6554808044722
9.6027e-05
deg
M
100.8316581457366
2.3574e-05
deg
t
p
2458025.237302371216
(2017-Sep-28.73730237)
0.00012925
TDB
period
2053.864579386752
5.62
2.8969e-05
7.931e-08
d
yr
n
.175279326404027
2.4722e-09
deg/d
Q
3.836266464692334
3.6072e-08
au
Orbit Determination Parameters
# obs. used (total)
317
data-arc span
8457 days (23.15 yr)
first obs. used
1996-02-10
last obs. used
2019-04-07
planetary ephem.
DE431
SB-pert. ephem.
SB431-N16
condition code
0
norm. resid. RMS
.58141
source
ORB
producer
Otto Matic
solution date
2019-Jul-13 08:22:32
Additional Information
Earth MOID
= 1.50476 au
Jupiter MOID
= 1.52041 au
T_jup
= 3.164
[ show covariance matrix ]
[
Ephemeris
|
Orbit Diagram
|
Orbital Elements
|
Mission Design
|
Physical Parameters
|
Discovery Circumstances
|
Close-Approach Data
]
Physical Parameter Table
Parameter
Symbol
Value
Units
Sigma
Reference
Notes
absolute magnitude
H
15.5
n/a
MPO432919
146221 (2000 VH58)
Discovered 2000-Nov-03 by LINEAR at Socorro
Reference:
20070106/Numbers.arc
Last Updated:
2007-01-09
[ show close-approach data ]
[
Ephemeris
|
Orbit Diagram
|
Orbital Elements
|
Mission Design
|
Physical Parameters
|
Discovery Circumstances
|
Close-Approach Data
]
2019-Dec-11 23:22 UT
(server date/time)
Site Manager:
Ryan S. Park
Webmaster
:
Alan B. Chamberlin